Location: Goudie Road
(49.9333°N, 119.0750°W)
Time: 10:40:33
(UTC-07:00)

Daily predictions for brighter satellites

Satellite Brightness Start Highest point End
(mag) Time Altitude Azimuth Time Altitude Azimuth Time Altitude Azimuth
Cosmos 2154 Rocket 4.3 21:18:45 10° N 21:25:02 58° ENE 21:31:17 10° SSE
Intercosmos 24 4.2 21:20:48 10° N 21:25:03 51° ENE 21:28:33 10° SSE
ERS-1 Rocket 3.0 21:23:23 10° SSE 21:28:24 88° ENE 21:33:29 10° NNW
SL-08 RB Rocket 4.3 21:25:33 10° SE 21:29:45 42° ENE 21:33:59 10° N
Okean 2 4.2 21:28:53 10° SSE 21:32:33 33° E 21:36:15 10° NNE
YAOGAN 6 3.1 21:29:40 10° S 21:33:07 58° W 21:36:37 10° NNW
Meteor 2-4 Rocket 3.8 21:30:12 10° S 21:35:49 69° E 21:41:38 10° NNE
Cosmos 1833 Rocket 4.4 21:36:34 10° SE 21:39:09 13° E 21:41:45 10° ENE
Aureole 1 Rocket 2.3 21:36:11 10° S 21:39:18 51° ESE 21:42:12 10° NNE
Cosmos 1818 3.9 21:37:45 10° SW 21:43:11 75° NW 21:48:41 10° NE
Lacrosse 5 rocket 3.3 21:41:39 10° WNW 21:45:51 34° N 21:50:06 10° ENE
CENTAUR R/B 4.1 21:40:32 10° NW 21:47:45 41° WSW 21:55:24 10° S
H-2A R/B 2.4 21:43:04 10° SE 21:47:50 50° ENE 21:52:44 10° N
Cosmos 2112 Rocket 4.0 21:42:42 10° SSW 21:47:53 75° ESE 21:53:06 10° NNE
NOSS 2-2 (D) 3.6 21:44:53 10° SW 21:49:00 89° WNW 21:54:00 10° NE
Cosmos 1624 Rocket 4.1 21:45:45 10° NNW 21:51:04 85° ENE 21:56:22 10° SSE
Okean 1-7 Rocket 3.6 21:47:02 10° S 21:51:28 77° E 21:56:00 10° NNE
Cosmos 405 Rocket 3.7 21:49:04 10° SSW 21:52:44 49° WNW 21:56:30 10° N
SL-27 R/B 2.5 21:49:15 10° SSW 21:52:54 74° ESE 21:56:34 10° NNE
Tiangong 2 2.9 21:50:57 10° SSW 21:52:54 15° SSE 21:54:07 13° SE
ATLAS CENTAUR R/B 4.0 21:51:46 10° N 21:53:05 11° NNE 21:54:23 10° NE
Cosmos 2228 3.8 21:49:11 10° N 21:53:15 38° ENE 21:56:54 12° SE
MetOp-A 4.3 21:47:56 10° S 21:53:18 77° WSW 21:58:41 10° NNW
Cosmos 2341 Rocket 4.1 21:48:34 10° N 21:54:54 69° ENE 22:01:15 10° SSE
SPOT 5 2.6 21:51:10 10° SSE 21:55:29 86° ENE 21:59:54 10° NNW
Cosmos 921 Rocket 3.3 21:53:23 10° NNW 21:57:52 62° ENE 22:01:49 13° SSE
Cosmos 1892 Rocket 4.1 21:55:59 10° SSE 22:00:10 42° E 22:04:21 10° NNE
Terra 2.6 21:59:17 12° SE 22:03:19 38° ENE 22:07:44 10° N
Cosmos 1980 Rocket 3.5 21:58:24 10° NNW 22:03:25 31° NE 22:08:23 10° ESE
Cosmos 1441 Rocket 3.5 22:00:14 10° SSW 22:03:57 68° WNW 22:07:42 10° N
NOSS 2-2 (C) 4.1 22:03:42 10° SW 22:07:52 66° NW 22:12:54 10° NE
Meteor 1-23 Rocket 4.3 22:02:28 10° SSW 22:08:03 87° WNW 22:13:44 10° NNE
Cosmos 1606 Rocket 3.6 22:04:33 10° NNW 22:08:54 83° W 22:13:08 10° S
Cosmos 405 4.3 22:05:58 10° NNW 22:09:18 37° W 22:12:36 10° SSW
Cosmos 2218 Rocket 4.4 22:03:27 10° N 22:09:25 49° ENE 22:14:34 14° SE
Cosmos 2056 Rocket 3.6 22:04:49 10° NNW 22:10:01 75° WSW 22:14:45 12° SSE
Cosmos 1680 Rocket 4.0 22:05:58 10° SW 22:11:10 65° WNW 22:16:23 10° NNE
Cosmos 2322 Rocket 4.3 22:08:02 10° N 22:12:00 19° NE 22:15:57 10° E
Iridium 43 4.0 22:10:12 10° N 22:12:19 37° E 22:13:19 22° SE
ISS -3.1 22:11:03 10° SSW 22:14:04 33° SSE 22:17:05 10° E
USA 234 4.1 22:08:20 10° E 22:14:35 50° N 22:20:50 10° WNW
USA 245 3.1 22:14:44 12° S 22:16:56 42° WSW 22:19:12 10° NNW
Cosmos 1726 Rocket 3.6 22:15:04 10° NNW 22:19:24 77° W 22:23:20 12° S
TELKOM 3 4.0 22:20:18 10° W 22:22:35 39° SSW 22:24:09 21° SE
ARGOS 3.7 22:18:05 10° S 22:23:25 58° W 22:28:48 10° NNW
COSMOS 2487 3.3 22:22:42 18° SSE 22:24:47 33° ESE 22:28:02 10° NE
Meteor 1-22 Rocket 4.5 22:23:19 10° N 22:28:29 50° ENE 22:32:21 18° SE
Cosmos 2058 Rocket 3.1 22:24:30 10° NNW 22:28:55 83° W 22:32:33 15° S
Cosmos 1420 Rocket 4.4 22:24:56 10° NNW 22:30:07 53° ENE 22:33:59 17° SE
Cosmos 1025 Rocket 3.9 22:27:14 10° SSW 22:31:22 48° WNW 22:35:32 10° N
Cosmos 2181 Rocket 4.0 22:25:35 10° S 22:31:57 80° E 22:38:16 10° NNE
COSMOS 2406 4.2 22:27:08 10° SW 22:32:41 50° NW 22:38:14 10° NNE
CARTOSAT-1 3.6 22:30:40 18° SSE 22:33:45 68° ENE 22:38:04 10° N
Cosmos 2278 3.9 22:29:18 10° NNW 22:34:59 69° WSW 22:39:25 17° SSE
PSLV R/B 3.7 22:34:20 24° SE 22:35:32 39° ENE 22:38:12 10° N
SPOT 1/Viking Rocket 4.0 22:34:28 12° S 22:39:11 57° W 22:44:17 10° NNW
Cosmos 2082 Rocket 2.6 22:36:24 14° S 22:40:48 42° ESE 22:46:06 10° NE
Cosmos 1452 Rocket 3.5 22:36:53 10° NNW 22:42:12 90° ESE 22:45:56 20° SSE
CZ-4 R/B 4.4 22:45:58 10° NNE 22:50:48 44° E 22:53:45 22° SSE
Cosmos 2369 4.3 22:48:25 10° NW 22:53:58 51° WSW 22:58:05 18° S
Cosmos 1812 Rocket 3.8 22:50:58 10° N 22:55:26 61° ENE 22:57:58 25° SSE
Cosmos 1842 4.5 22:54:23 22° ESE 22:55:44 27° E 22:59:06 10° NNE
H-2A R/B 2.3 22:55:51 21° S 22:58:50 72° WSW 23:03:24 10° NNW
Iridium 2 4.2 22:55:32 10° N 22:59:12 44° E 23:00:50 27° SE
Cosmos 1697 Rocket 2.7 22:54:51 10° NNW 23:00:29 82° WSW 23:04:07 23° SSE
Cosmos 1953 3.7 22:57:13 10° N 23:00:47 28° ENE 23:02:42 20° ESE
Cosmos 1271 Rocket 3.1 22:58:21 10° N 23:02:09 50° ENE 23:03:56 27° SE
SL-16 R/B 3.5 22:57:47 10° NNW 23:02:53 32° NE 23:07:40 11° ESE
Cosmos 1626 Rocket 3.4 23:07:51 24° S 23:10:27 81° E 23:14:48 10° NNE
Meteor 1-4 Rocket 3.2 23:08:20 10° NNW 23:11:51 48° W 23:13:39 24° SSW
Cosmos 1656 4.3 23:10:43 10° NW 23:15:55 46° WSW 23:19:14 21° S
Meteor 2-21 Rocket 4.5 23:10:10 10° NNW 23:16:15 79° W 23:20:18 22° S
NOSS 8 (F) 4.4 23:13:30 10° SW 23:16:59 88° SE 23:20:49 10° NE
Cosmos 2366 rocket 4.2 23:11:03 10° NNW 23:17:10 66° W 23:21:35 19° S
IGS 5A 4.2 23:16:51 21° SSW 23:19:16 45° W 23:23:18 10° NNW
USA 267 3.8 23:13:55 10° ENE 23:19:48 34° SE 23:23:17 21° S
ALOS 2 4.0 23:19:23 18° ESE 23:21:45 28° ENE 23:25:30 10° N
Cosmos 1833 Rocket 2.6 23:17:22 15° SSW 23:22:07 77° ESE 23:27:46 10° NNE
Cosmos 1825 Rocket 4.2 23:22:28 28° SE 23:23:59 38° E 23:27:59 10° NNE
NOSS 3-1 (C) 4.3 23:17:01 10° NW 23:24:13 62° NE 23:31:41 12° ESE
Cosmos 1766 3.4 23:21:53 10° NNW 23:25:47 65° W 23:27:30 31° S
Lacrosse 5 rocket 2.6 23:21:27 10° NW 23:25:55 45° NNE 23:30:24 10° E
SeaSat 1 3.0 23:23:08 20° ESE 23:26:20 52° NE 23:31:09 10° NNW
H-2A R/B 3.7 23:23:31 10° SSW 23:27:34 25° W 23:31:42 10° NW
ATLAS CENTAUR R/B 2.5 23:29:44 10° NNW 23:33:11 34° NE 23:35:28 17° E
NOSS 8 (H) 4.4 23:33:05 22° SW 23:35:12 89° SE 23:39:05 10° NE
Cosmos 972 Rocket 4.4 23:34:38 10° NNW 23:40:00 56° ENE 23:42:40 26° SE
Meteor 1-21 4.2 23:36:46 24° S 23:40:21 88° E 23:46:09 10° NNE
Cosmos 1758 3.2 23:36:50 10° N 23:40:52 80° E 23:42:15 39° SSE
Terra 3.2 23:38:10 17° SSW 23:41:08 31° W 23:45:23 10° NNW
Cosmos 1470 3.5 23:38:56 10° N 23:42:45 42° ENE 23:44:07 30° ESE
deb Chang Zheng 4 4.3 23:38:53 10° N 23:43:05 51° WNW 23:46:12 17° SW
Cosmos 1602 Rocket 4.2 23:41:42 19° SW 23:44:32 49° WNW 23:48:47 10° N
Timation 2 Rocket 3.9 23:41:29 20° SSW 23:46:06 75° ESE 23:52:14 10° NNE
Cosmos 2360 Rocket 3.7 23:41:19 10° NNW 23:46:19 30° NE 23:51:16 10° ESE
Cosmos 1980 Rocket 2.4 23:42:14 10° NW 23:47:48 60° WSW 23:50:34 29° S
USA 229 DEB 3.9 23:42:18 10° NW 23:49:20 65° SW 23:53:29 27° SSE
USA 229 3.9 23:42:24 10° NW 23:49:26 66° SW 23:53:36 27° SSE
ISS -3.7 23:47:06 10° W 23:50:24 78° NNW 23:53:42 10° ENE
Cosmos 389 Rocket 2.3 23:47:14 10° N 23:50:45 84° ENE 23:51:30 52° SSE
Lacrosse 5 3.9 23:53:18 12° ESE 23:53:18 12° ESE 23:54:34 10° E
CZ-4B R/B 3.8 23:49:47 10° N 23:54:46 66° WNW 23:58:14 21° SSW
Cosmos 1544 3.7 23:52:15 10° NNW 23:55:45 45° W 23:56:49 34° SW
